User: anonymous   Login
Location: Unspecified
(0.0000°N, 0.0000°E)
Time: 22:27:33
(UTC+00:00)
Language:

CUTE-I - Orbit

View from above orbital plane
View from above orbital plane
View from above satellite
View from above satellite

Ground track
Ground track

The orbit data is extracted from the following two-line orbital elements,

1 27844U 03031E   18343.92032567 +.00000038 +00000-0 +36721-4 0  9999
2 27844 098.6860 349.9792 0009155 218.5510 141.5015 14.22148692801138
Epoch (UTC): 09 December 2018 22:05:16
Eccentricity: 0.0009155
inclination: 98.6860°
perigee height: 811 km
apogee height: 824 km
right ascension of ascending node: 349.9792°
argument of perigee: 218.5510°
revolutions per day: 14.22148692
mean anomaly at epoch: 141.5015°
orbit number at epoch: 80113

The dashed part of the orbit path shows where the satellite is in the earth's shadow,  

DLR